N12KBM KONT-KSNA

Flight info

Callsign N12KBM
Flight time N/A
Altitude VFR
Route VFR N
Aircraft COL4/L-VGD/C

Departure

Time 2026-05-03 23:37
Airport Ontario International Airport (KONT)

Arrival

Time N/A
Airport John Wayne Orange County International Airport (KSNA)
Time Latitude Longitude Altitude Speed Heading
2026-05-03 23:31 34.05265 -117.60057 926 ft 0 kts 261°
2026-05-03 23:34 34.05264 -117.60065 925 ft 3 kts 265°
2026-05-03 23:34 34.05282 -117.60099 928 ft 7 kts 343°
2026-05-03 23:34 34.05333 -117.60066 926 ft 6 kts 34°
2026-05-03 23:34 34.05393 -117.59912 927 ft 27 kts 90°
2026-05-03 23:35 34.05388 -117.59716 929 ft 20 kts 92°
2026-05-03 23:35 34.05387 -117.59564 929 ft 16 kts 90°
2026-05-03 23:35 34.05406 -117.59454 927 ft 8 kts 46°
2026-05-03 23:35 34.05413 -117.59443 927 ft 0 kts 56°
2026-05-03 23:36 34.05422 -117.59431 927 ft 19 kts 43°
2026-05-03 23:36 34.05477 -117.59405 925 ft 0 kts 321°
2026-05-03 23:36 34.05487 -117.59417 925 ft 15 kts 311°
2026-05-03 23:37 34.05499 -117.59665 928 ft 47 kts 270°
2026-05-03 23:37 34.05499 -117.60186 930 ft 76 kts 269°
2026-05-03 23:37 34.05493 -117.60887 1024 ft 96 kts 268°
2026-05-03 23:37 34.05393 -117.61785 1666 ft 117 kts 253°
2026-05-03 23:38 34.05010 -117.62770 2222 ft 142 kts 240°
2026-05-03 23:38 34.04306 -117.63628 3132 ft 151 kts 203°
2026-05-03 23:38 34.03134 -117.63940 3265 ft 186 kts 188°
2026-05-03 23:38 34.01968 -117.63959 3397 ft 141 kts 167°
2026-05-03 23:39 34.01334 -117.63384 3566 ft 119 kts 115°
2026-05-03 23:39 34.01174 -117.62382 3504 ft 112 kts 96°
2026-05-03 23:39 34.01071 -117.61243 3746 ft 160 kts 95°
2026-05-03 23:39 34.00983 -117.59828 4452 ft 181 kts 92°
2026-05-03 23:40 34.00879 -117.58139 4638 ft 226 kts 94°
2026-05-03 23:40 34.00652 -117.56212 5103 ft 242 kts 104°
2026-05-03 23:40 33.99846 -117.54410 5661 ft 244 kts 121°
2026-05-03 23:40 33.98968 -117.52643 6263 ft 251 kts 120°
2026-05-03 23:41 33.98092 -117.50792 6569 ft 262 kts 118°